Theta_e
335 336 336 335 336 335 336 336 341 337 331 326 323 327 327 325 325 327 340 340 338 332 329 325 326 325 336 334 330 324 324 323 323 326 332 335 333 331 329 325 332 334 333
332 333 334 333 332 340 344 339 342 340 331 326 324 328 328 327 327 326 330 333 334 331 329 325 325 326 331 332 330 326 324 324 323 325 325 325 330 335 330 334 330 332 330
337 332 332 333 331 336 343 334 342 337 331 326 328 328 329 329 329 327 328 333 337 331 328 325 325 328 330 333 331 327 324 324 322 320 326 328 333 334 327 330 332 331 333
340 337 334 336 336 341 336 342 343 333 329 325 329 331 331 332 333 330 328 334 336 330 328 325 326 328 330 331 331 328 325 324 323 324 327 327 334 331 333 329 331 331 331
335 339 338 341 345 339 337 333 339 329 327 327 331 333 334 335 334 334 330 339 339 330 327 326 326 327 329 330 331 328 325 325 324 325 327 328 331 329 333 327 331 330 329
334 338 340 341 341 338 336 333 332 329 327 328 331 338 340 338 336 334 333 337 334 332 328 326 326 326 328 329 331 329 326 325 324 324 324 325 330 332 330 327 328 329 329
333 334 336 339 338 337 337 335 333 331 327 326 335 336 337 342 337 334 333 332 331 337 332 327 326 326 327 329 330 330 328 327 326 324 323 324 329 331 325 329 327 328 328
335 335 335 334 336 336 335 336 336 334 329 326 340 337 335 333 337 336 335 332 332 336 336 332 327 326 326 328 330 330 329 328 327 326 324 325 330 324 329 327 328 328 327
335 335 336 337 337 336 336 338 337 337 330 327 337 341 340 336 339 331 340 338 333 333 333 335 332 327 326 327 329 331 329 330 328 326 325 327 326 324 318 324 329 328 328
339 339 339 340 340 340 340 340 340 340 339 335 328 333 337 334 337 332 335 340 339 335 333 334 335 332 327 327 329 331 330 330 329 327 326 325 325 324 318 327 326 328 329
340 340 339 340 341 342 342 342 341 339 341 340 337 333 335 334 338 336 328 335 338 338 335 333 334 333 331 328 329 331 331 331 330 328 326 325 326 325 322 320 325 326 326
343 342 341 341 343 343 341 343 341 340 340 339 339 337 334 336 337 339 336 330 330 334 337 334 333 334 332 331 328 330 331 331 331 329 327 326 326 325 324 323 324 327 325
331 339 340 340 340 341 341 339 338 340 340 340 340 338 336 335 335 336 335 333 327 328 336 335 334 334 334 332 330 328 330 332 333 331 327 327 326 326 325 325 326 328 325
320 321 324 330 336 340 341 336 337 337 338 339 340 340 339 336 331 337 336 334 332 329 327 331 332 334 334 333 331 329 329 332 333 333 328 328 327 326 325 326 326 325 328
322 322 323 323 324 324 331 340 334 328 330 333 339 341 340 339 338 333 333 333 333 331 330 327 327 334 333 333 333 330 328 332 333 333 329 328 326 326 326 325 328 328 325
323 323 322 323 323 326 328 331 333 333 329 326 331 338 341 341 339 338 336 335 335 333 326 325 325 330 335 334 333 333 329 331 332 333 330 328 326 326 326 325 326 326 325
321 321 322 322 322 322 323 326 329 331 332 332 331 332 336 340 340 339 339 338 337 335 327 325 326 328 332 333 333 333 331 330 333 333 331 328 326 326 325 326 326 325 324
314 316 317 319 320 320 320 321 321 322 324 324 326 333 333 337 338 337 335 335 336 336 331 330 330 334 333 334 333 333 333 331 332 332 331 328 326 325 326 326 326 325 324
309 310 311 311 313 316 318 319 320 320 320 320 321 323 327 333 336 336 337 335 336 335 335 334 333 334 332 333 332 331 332 331 332 332 330 329 325 326 325 326 325 324 324
305 305 305 305 305 306 309 313 315 318 320 321 321 321 322 324 328 333 335 334 335 334 334 334 334 333 332 332 332 331 330 330 332 332 330 328 326 325 325 325 325 323 324
306 307 307 307 306 306 304 305 309 312 314 316 318 319 321 322 323 323 324 330 334 334 334 333 333 333 332 332 331 328 326 330 332 331 330 324 326 324 325 324 324 323 322
306 306 306 306 307 308 309 307 304 303 303 305 312 315 316 318 322 324 323 322 323 328 333 333 333 333 331 331 330 327 330 330 330 330 329 328 326 325 324 323 323 322 321
304 305 306 306 306 305 305 307 309 308 307 307 305 308 308 313 318 322 325 327 323 324 329 331 333 333 331 331 329 330 329 328 328 327 327 326 325 324 323 322 321 321 323
301 301 301 302 302 302 303 304 305 307 307 307 306 303 303 307 313 320 323 327 328 327 329 332 331 332 329 331 330 330 330 329 327 324 325 325 324 324 324 322 321 320 321
300 300 302 302 303 303 303 305 305 305 305 306 307 307 304 305 310 320 322 323 329 327 328 332 333 330 330 331 330 330 330 328 326 324 321 323 324 322 322 321 320 320 321
300 301 302 303 302 302 302 303 306 308 307 306 305 305 307 307 308 315 320 322 324 325 331 334 331 328 329 330 330 330 329 328 326 326 323 321 321 319 321 320 321 319 319
Wind_Speed
11 13 13 13 12 10 8 7 7 6 4 4 4 6 6 6 6 6 6 5 3 2 3 5 6 7 7 7 10 13 14 14 15 15 15 15 14 11 12 14 14 15 13
9 12 13 13 12 10 8 7 7 6 4 4 4 6 6 6 6 6 4 3 2 2 3 4 5 6 5 7 10 12 13 14 15 15 14 13 15 16 15 16 14 16 11
6 11 13 13 12 11 11 9 9 7 5 4 5 6 5 5 4 4 3 3 3 2 3 3 4 4 5 7 8 11 13 14 14 14 14 14 16 13 17 14 15 17 17
6 10 12 12 11 10 10 9 10 8 6 6 6 7 6 5 4 3 3 2 1 1 1 1 2 2 4 6 8 12 12 13 13 13 14 16 14 13 15 17 17 17 20
3 7 10 11 10 10 9 8 9 8 7 7 7 7 6 5 5 3 3 3 2 1 0 0 0 1 3 5 6 10 12 12 13 13 14 14 12 13 12 14 17 16 17
2 5 8 11 10 10 9 8 8 9 8 8 8 7 6 6 6 5 5 5 5 3 2 3 2 1 1 3 5 8 10 12 12 12 13 13 13 14 11 13 12 13 16
2 2 5 10 10 10 10 9 9 10 10 10 9 9 9 10 8 7 6 6 5 4 3 4 4 3 1 1 3 5 8 11 13 12 13 13 12 9 13 11 16 16 16
3 2 1 5 8 9 9 10 10 10 11 11 11 10 12 12 11 9 8 7 7 7 5 6 7 5 3 2 1 2 4 8 12 13 13 14 13 12 12 14 14 16 15
1 2 1 3 6 8 9 10 10 10 11 12 13 13 14 14 13 12 12 10 9 9 8 7 8 8 7 5 3 2 1 4 8 11 13 11 11 12 12 11 13 14 14
4 4 4 4 6 7 7 9 10 11 12 13 15 15 16 16 16 15 15 15 12 11 10 9 9 9 9 8 6 4 3 0 4 7 10 11 11 12 11 12 11 13 15
8 9 9 10 10 11 11 11 11 11 13 14 16 16 17 19 17 17 18 17 16 15 13 11 11 12 12 12 10 8 6 4 1 2 6 9 11 10 9 8 11 12 14
12 14 16 18 19 18 17 15 15 14 14 15 16 17 20 20 20 19 19 19 18 18 17 16 13 13 14 14 14 12 9 8 6 2 3 6 9 10 8 8 9 10 11
13 17 20 23 23 23 22 19 21 21 20 19 18 17 19 21 22 23 22 20 20 20 21 19 17 16 16 16 16 15 13 11 9 7 3 3 5 7 6 6 8 9 11
12 13 14 17 21 24 24 24 23 24 24 26 23 20 19 20 23 24 24 22 22 22 23 22 20 18 17 17 17 17 17 15 12 9 6 3 1 5 5 5 6 7 9
9 8 9 10 11 15 20 24 24 23 25 27 28 26 22 21 20 22 23 23 25 25 25 25 23 20 19 18 19 19 19 19 14 13 10 5 1 2 4 5 4 6 8
6 9 10 11 12 13 14 17 20 24 26 27 30 30 27 27 24 23 23 23 24 26 25 25 24 22 21 19 20 20 21 21 20 16 13 9 5 2 1 3 2 3 6
8 9 11 13 14 15 16 16 17 18 20 24 28 30 31 29 28 28 26 27 25 24 24 24 24 25 24 22 22 20 22 23 22 19 16 13 8 4 3 3 2 2 3
9 11 12 14 15 16 17 18 19 20 21 22 23 26 29 31 31 31 31 30 28 26 23 23 24 25 25 24 20 19 21 22 20 15 18 15 10 5 5 4 4 0 4
14 14 15 16 17 17 18 19 20 21 21 22 25 26 27 30 32 32 32 32 30 26 27 26 25 24 24 24 19 18 19 19 19 18 20 19 12 8 5 6 5 2 1
14 15 15 16 17 18 19 20 19 19 19 20 20 21 23 28 29 31 36 34 31 30 28 29 27 26 25 23 19 18 17 20 20 20 23 18 12 7 7 6 7 6 3
17 19 21 21 20 19 19 20 21 24 22 18 16 16 18 21 25 28 30 32 34 32 31 29 29 28 26 24 23 20 19 18 18 20 24 18 15 11 8 7 9 7 6
19 21 24 26 26 25 24 21 21 23 25 26 22 18 19 21 19 21 25 30 31 31 35 34 33 31 30 28 26 20 12 13 16 21 23 23 16 14 11 7 9 7 6
21 23 27 28 28 28 27 27 27 26 26 27 27 25 21 20 22 18 19 23 28 30 31 33 35 34 30 30 29 16 9 7 19 12 19 16 16 14 12 9 8 7 6
25 25 25 24 23 24 24 24 25 27 27 27 29 29 29 23 23 18 19 21 24 28 31 33 34 30 31 33 28 28 18 18 15 14 16 12 12 11 11 10 6 7 7
26 27 25 23 22 21 21 22 23 24 24 27 29 30 29 22 22 19 20 22 22 27 32 33 33 31 33 33 31 32 26 22 27 28 21 20 17 13 10 6 4 4 3
25 25 24 23 23 23 23 22 23 22 24 27 25 30 31 25 24 25 24 25 25 25 29 29 32 31 31 32 32 33 33 30 28 26 23 24 20 14 11 7 5 3 3
Wind_Direction
188 182 186 186 187 187 184 183 174 183 182 179 176 162 153 143 139 133 133 129 110 57 64 61 74 92 81 41 39 39 43 43 45 46 44 47 37 29 23 25 24 19 30
194 190 185 190 189 184 184 181 188 194 197 192 185 170 160 149 142 147 152 138 97 82 69 61 79 99 71 50 44 41 45 45 43 41 33 34 36 40 35 27 37 20 27
190 195 192 191 190 190 192 185 196 213 210 198 187 185 173 159 152 150 155 145 110 78 64 58 85 88 63 50 46 43 42 43 43 37 37 41 44 32 34 21 34 25 24
188 194 198 193 194 195 198 189 204 211 216 209 196 197 193 182 173 172 175 156 142 84 64 60 87 87 58 51 43 41 42 42 40 39 35 42 51 26 36 27 36 22 28
170 185 201 201 198 209 215 213 209 223 228 220 210 207 207 206 206 199 207 183 226 237 257 288 20 59 41 39 46 46 43 42 40 37 32 31 38 38 29 40 39 24 28
151 180 204 209 210 217 223 231 236 240 241 232 221 219 225 236 237 227 216 206 237 245 230 247 249 264 22 23 55 48 45 43 41 37 30 27 35 47 21 44 41 36 27
97 147 201 213 219 229 237 243 250 253 250 238 230 224 227 239 248 252 236 239 242 237 240 259 258 256 266 350 71 55 49 48 42 38 32 29 38 32 31 40 39 42 28
96 81 137 213 223 237 246 254 259 260 254 243 235 239 240 239 239 248 242 243 243 243 248 256 261 260 258 252 177 87 62 49 43 40 37 38 42 16 44 39 38 51 39
147 125 160 221 226 241 248 255 263 264 257 251 243 250 253 247 241 251 246 245 243 241 245 250 261 265 259 254 229 204 119 60 49 40 36 42 32 22 26 45 46 50 40
249 249 246 248 248 247 252 262 270 271 260 257 253 249 249 251 247 253 249 249 248 249 246 242 248 258 263 262 250 235 220 75 48 39 34 37 29 23 27 43 45 49 44
281 281 276 270 263 257 255 259 263 275 278 269 262 253 251 248 248 252 248 250 253 254 256 250 245 248 256 256 248 242 228 236 249 30 26 31 23 18 18 30 45 45 45
266 266 268 269 270 270 275 265 267 270 273 278 277 265 257 257 254 253 256 252 250 253 251 252 245 244 246 248 248 244 234 234 249 257 344 37 25 9 10 34 40 49 48
272 262 257 259 261 265 272 276 275 274 273 273 276 277 269 260 256 255 255 252 250 248 248 249 248 243 241 242 247 247 241 243 242 238 276 350 33 9 4 31 51 55 48
278 279 275 268 261 257 256 259 265 272 275 274 272 272 272 268 260 259 259 257 255 251 251 250 250 245 242 242 242 247 242 240 247 241 235 264 35 23 8 31 26 47 61
266 278 282 284 278 267 259 253 251 252 259 265 267 266 264 264 265 262 260 261 260 256 253 253 250 244 242 244 243 245 245 240 247 244 224 237 256 21 17 354 54 60 53
284 279 287 288 288 286 275 266 257 250 251 259 264 264 259 259 261 259 257 259 263 260 254 251 247 243 245 248 244 243 245 242 247 253 218 224 213 185 19 344 356 44 33
317 307 290 287 283 282 280 283 279 274 266 260 256 257 259 256 256 261 260 260 260 262 255 249 244 236 242 243 243 242 242 245 251 254 222 211 215 185 229 304 290 33 19
341 333 326 313 305 298 291 283 277 276 275 273 268 262 262 259 254 255 258 263 262 260 254 245 241 239 242 239 241 243 242 243 247 243 216 211 214 211 234 252 242 231 40
359 348 341 334 326 318 308 300 292 287 282 277 272 269 266 261 257 255 253 256 258 253 250 240 243 247 244 237 238 239 242 243 244 232 214 208 208 209 229 228 230 274 3
359 352 346 343 338 330 322 311 302 295 283 281 284 278 269 267 267 265 260 254 251 249 246 244 244 243 238 237 234 236 243 249 246 235 217 209 200 214 219 215 216 236 248
349 345 342 338 336 333 329 325 315 313 309 297 287 297 290 274 267 263 265 262 255 242 241 247 247 242 235 232 222 228 234 251 248 228 213 212 198 205 201 223 219 219 243
348 346 343 340 334 327 320 323 324 319 316 313 303 298 300 301 286 268 264 260 257 254 247 241 238 236 237 226 223 221 197 200 209 214 204 185 185 197 201 199 231 219 242
344 338 329 322 321 319 319 310 304 305 307 308 309 302 303 298 299 288 279 271 257 247 245 239 235 233 232 219 221 205 166 173 174 184 171 175 179 191 200 204 218 244 253
347 345 341 340 339 331 326 324 317 307 309 310 309 308 308 307 296 295 299 284 269 246 243 237 235 232 227 221 218 214 206 194 167 153 156 171 179 192 195 198 214 255 263
345 344 344 343 345 341 339 337 330 322 312 306 305 305 311 302 301 296 307 296 285 246 238 239 235 229 225 228 222 216 207 189 181 160 151 149 176 176 169 183 212 215 207
342 344 344 343 345 340 335 330 328 326 320 315 311 305 313 311 300 298 305 300 285 253 234 238 235 232 227 228 225 227 216 194 193 186 174 165 167 149 142 163 170 208 250